Regional Weather Roundup
Issued by NWS Little Rock, AR

Home | Current Version | Previous Version | Graphics & Text | Print | Product List | Glossary On
Versions: 1 2 3 4 5 6 7 8 9 10 11 12 13 14 15 16 17 18 19 20 21 22 23 24 25 26 27 28 29 30 31 32 33 34 35 36 37 38 39 40 41 42 43 44 45 46 47 48
000
ASUS44 KLZK 041505
RWRLZK

WEATHER ROUNDUP FOR ARKANSAS
NATIONAL WEATHER SERVICE LITTLE ROCK AR
1000 AM CDT MON MAY 04 2015

NOTE: "FAIR" INDICATES FEW OR NO CLOUDS BELOW 12,000 FEET WITH NO
SIGNIFICANT WEATHER AND/OR OBSTRUCTIONS TO VISIBILITY.

ARZ001-003-010-029-041600-
NORTHWEST ARKANSAS

CITY           SKY/WX    TMP DP  RH WIND       PRES   REMARKS
FAYETTEVILLE   PTSUNNY   72  61  68 S12       30.14R
FORT SMITH     PTSUNNY   72  60  66 VRB6      30.13R
HARRISON       PTSUNNY   70  58  65 S8        30.16R
BENTONVILLE    PTSUNNY   70  55  60 SW9       30.14S
ROGERS         PTSUNNY   70  58  65 S16       30.14R
SILOAM SPGS    PTSUNNY   70  55  60 S13G20    30.15R
HIGHFILL       PTSUNNY   68  57  68 S10       30.13R
SPRINGDALE     PTSUNNY   72  57  60 S15       30.16R
$$

ARZ004-005-016-041600-
NORTH CENTRAL ARKANSAS

CITY           SKY/WX    TMP DP  RH WIND       PRES   REMARKS
BATESVILLE     SUNNY     73  61  64 CALM      30.17R
FLIPPIN        MOSUNNY   73  57  56 S9        30.14R
MTN HOME       SUNNY     73  59  61 S8        30.15R
$$

ARZ040-041-041600-
WEST CENTRAL ARKANSAS

CITY           SKY/WX    TMP DP  RH WIND       PRES   REMARKS
MENA           MOSUNNY   73  63  68 W8        30.17S
MOUNT IDA      SUNNY     74  61  63 VRB5      30.15R
$$

ARZ009-017-025-026-028-041600-
NORTHEAST ARKANSAS

CITY           SKY/WX    TMP DP  RH WIND       PRES   REMARKS
CORNING          N/A     77  59  53 S13       30.18R
JONESBORO      SUNNY     74  61  63 S7        30.18R
NEWPORT        SUNNY     76  61  59 SW7       30.19R
WALNUT RIDGE   MOSUNNY   75  59  57 S10       30.17S
BLYTHEVILLE    SUNNY     77  60  55 SW8       30.20R
NW BLYTHEVILLE SUNNY     79  59  50 SW10      30.20R
$$

ARZ022-023-033-042-044-041600-
CENTRAL ARKANSAS

CITY           SKY/WX    TMP DP  RH WIND       PRES   REMARKS
LITTLE ROCK    MOSUNNY   75  59  57 S9        30.18S
N LITTLE ROCK  MOSUNNY   72  63  73 SW9       30.18S
SEARCY         SUNNY     74  62  66 S6        30.19S
HOT SPRINGS    SUNNY     72  61  68 SE7       30.18S
RUSSELLVILLE   MOSUNNY   72  60  66 CALM      30.16R
CLINTON        FAIR      72  63  73 CALM      30.18S
$$

ARZ036-041600-
EAST ARKANSAS

CITY           SKY/WX    TMP DP  RH WIND       PRES   REMARKS
WEST MEMPHIS   MOSUNNY   74  61  63 S12       30.20R
$$

ARZ050-053-066-070-073-041600-
SOUTHWEST ARKANSAS

CITY           SKY/WX    TMP DP  RH WIND       PRES   REMARKS
ARKADELPHIA    FAIR      72  63  73 CALM      30.20R
CAMDEN         SUNNY     73  59  60 CALM      30.19S
TEXARKANA      SUNNY     73  62  68 S7        30.18R
EL DORADO      SUNNY     74  61  63 VRB6      30.20R
DE QUEEN       PTSUNNY   71  61  70 VRB5      30.16R
$$

ARZ056-057-069-041600-
SOUTHEAST ARKANSAS

CITY           SKY/WX    TMP DP  RH WIND       PRES   REMARKS
PINE BLUFF     SUNNY     73  60  63 S6        30.20R
STUTTGART      SUNNY     75  59  57 S8        30.20S
MONTICELLO     CLOUDY    69  61  75 SE3       30.21R

$$





USA.gov is the U.S. government's official web portal to all federal, state and local government web resources and services.